[[{"header":{"parameterUnit":"m.s-1","parameterCategory":1,"la1":30.2992,"la2":30.254,"lo1":-89.0895,"lo2":-89.0443,"dy":0.0025,"dx":0.0025,"nx":19,"ny":19,"refTime":"2026-05-17T21:00:00:Z","depth":0,"parameterNumber":2,"parameterNumberName":"U-component_of_WINDS"},"data":[0,0,0,-5.6341,-5.6344,-5.649,-5.6491,-5.6682,-5.6683,0,0,0,0,0,0,0,0,0,0,0,-5.6302,-5.6304,-5.6341,-5.6345,-5.649,-5.6491,-5.6681,-5.6683,0,0,0,0,0,0,0,0,0,0,0,-5.6301,-5.6303,-5.6305,-5.6345,-5.649,-5.6491,-5.6681,-5.6569,0,0,0,0,0,0,0,0,0,0,-5.6427,-5.6395,-5.6303,-5.6305,-5.6346,-5.649,-5.6491,-5.6563,-5.6576,-5.6618,0,-5.6658,0,-5.6674,-5.6696,-5.6697,0,0,0,-5.6341,-5.6384,-5.642,-5.6305,-5.6348,-5.649,-5.6424,-5.657,-5.6585,-5.6635,-5.666,-5.6667,-5.6677,-5.6698,-5.6699,-5.6955,-5.6956,0,0,-5.6333,-5.633,-5.6411,-5.643,-5.6409,-5.6419,-5.6428,-5.6579,-5.6606,-5.6661,-5.6672,-5.668,-5.6699,-5.6701,-5.6953,-5.6955,0,0,0,-5.6312,-5.6325,-5.6357,-5.6422,-5.6448,-5.6423,-5.6434,-5.6599,-5.661,-5.6674,-5.6682,-5.67,-5.6703,-5.6952,-5.6954,-5.7016,0,0,0,-5.6307,-5.6312,-5.6353,-5.6353,-5.6445,-5.6526,-5.6451,-5.66,-5.6617,-5.6681,-5.67,-5.6705,-5.695,-5.6953,-5.7011,-5.7045,0,0,0,-5.6291,-5.631,-5.6333,-5.6352,-5.6415,-5.6523,-5.6543,-5.6603,-5.6622,-5.6697,-5.6705,-5.6949,-5.6953,-5.7007,-5.7037,-5.7109,0,0,0,-5.6272,-5.6387,-5.6334,-5.6465,-5.6414,-5.6562,-5.6542,-5.6652,-5.6724,-5.6701,-5.6951,-5.6954,-5.7005,-5.7033,-5.7104,-5.7166,-5.7192,0,0,-5.6414,-5.6404,-5.6481,-5.6438,-5.6595,-5.654,-5.6706,-5.6774,-5.6785,-5.6897,-5.6903,-5.7013,-5.7037,-5.7108,-5.7348,-5.7369,0,0,0,-5.6525,-5.658,-5.6622,-5.6691,-5.6748,-5.6798,-5.6842,-5.6867,-5.6963,-5.6842,-5.706,-5.7074,-5.7116,-5.7145,-5.7163,-5.7198,-5.6968,-5.6968,-5.6968,-5.6718,-5.6726,-5.6854,-5.6879,-5.6947,-5.6992,-5.7046,-5.7088,-5.7076,-5.7128,-5.7159,-5.7304,-5.7339,-5.7352,-5.7388,-5.7196,-5.7196,-5.7196,-5.7197,-5.6924,-5.7002,-5.6985,-5.7102,-5.711,-5.7208,-5.7257,-5.7245,-5.7336,-5.7281,-5.7318,-5.7253,-5.7375,-5.7406,-5.7201,-5.7201,-5.72,-5.72,-5.7199,-5.7048,-5.7086,-5.7117,-5.7218,-5.7294,-5.7317,-5.7406,-5.741,-5.7415,-5.7452,-5.7484,-5.7483,-5.748,-5.7468,-5.7469,-5.7469,-5.747,-5.747,-5.747,-5.7163,-5.7196,-5.727,-5.7341,-5.7386,-5.7445,-5.7493,-5.7537,-5.7586,-5.7582,-5.7582,-5.7562,-5.7387,-5.734,-5.7478,-5.7476,-5.7476,-5.7475,-5.7474,-5.7361,-5.7318,-5.7433,-5.7478,-5.7561,-5.7635,-5.7642,-5.773,-5.7767,-5.7811,-5.7786,-5.7656,-5.7644,-5.763,-5.7591,-5.7785,-5.7785,-5.7785,-5.7786,-5.7463,-5.7459,-5.7578,-5.7649,-5.772,-5.7737,-5.7865,-5.7904,-5.7937,-5.796,-5.7934,-5.7884,-5.787,-5.7866,-5.7847,-5.781,-5.8056,-5.8056,-5.8057,-5.7584,-5.7587,-5.7695,-5.7729,-5.7794,-5.785,-5.797,-5.8051,-5.808,-5.8068,-5.7977,-5.7966,-5.7886,-5.786,-5.7841,-5.7811,-5.7744,0,0]},{"header":{"parameterUnit":"m.s-1","parameterCategory":1,"la1":30.2992,"la2":30.254,"lo1":-89.0895,"lo2":-89.0443,"dy":0.0025,"dx":0.0025,"nx":19,"ny":19,"refTime":"2026-05-17T21:00:00:Z","depth":0,"parameterNumber":3,"parameterNumberName":"V-component_of_WINDS"},"data":[0,0,0,3.3107,3.3109,3.3203,3.3204,3.3293,3.3294,0,0,0,0,0,0,0,0,0,0,0,3.3062,3.3062,3.3107,3.3109,3.3203,3.3204,3.3293,3.3294,0,0,0,0,0,0,0,0,0,0,0,3.3062,3.3062,3.3062,3.3109,3.3203,3.3204,3.3293,3.3233,0,0,0,0,0,0,0,0,0,0,3.3147,3.3087,3.3062,3.3062,3.311,3.3203,3.3204,3.323,3.3236,3.3237,0,3.3234,0,3.3265,3.3298,3.3298,0,0,0,3.3122,3.3082,3.3123,3.3062,3.3111,3.3203,3.3164,3.3234,3.3241,3.3245,3.3236,3.324,3.3267,3.3298,3.3298,3.3263,3.3262,0,0,3.3117,3.3069,3.3118,3.3127,3.3112,3.3161,3.3167,3.3239,3.3225,3.3236,3.3243,3.3268,3.3298,3.3299,3.3264,3.3263,0,0,0,3.3093,3.3064,3.3105,3.3122,3.3142,3.3164,3.3171,3.3222,3.3239,3.3244,3.3269,3.3299,3.33,3.3265,3.3264,3.318,0,0,0,3.3091,3.3051,3.3102,3.3073,3.314,3.3183,3.3151,3.3234,3.3244,3.3269,3.3299,3.33,3.3266,3.3264,3.3184,3.3148,0,0,0,3.3062,3.3048,3.3055,3.3071,3.311,3.3183,3.3205,3.3237,3.3258,3.3298,3.33,3.3267,3.3265,3.3188,3.3155,3.3126,0,0,0,3.3016,3.2978,3.3053,3.302,3.3108,3.313,3.3205,3.3224,3.3247,3.3299,3.3266,3.3264,3.3189,3.3158,3.3129,3.3094,3.3074,0,0,3.2941,3.2967,3.2952,3.3022,3.3018,3.312,3.3104,3.3171,3.3218,3.3245,3.3245,3.3183,3.3155,3.3127,3.2978,3.2962,0,0,0,3.2912,3.29,3.291,3.293,3.2981,3.3021,3.3096,3.3121,3.3147,3.3222,3.3165,3.315,3.3136,3.3121,3.3107,3.3098,3.3255,3.3255,3.3255,3.2737,3.28,3.2779,3.2853,3.2872,3.2949,3.2971,3.3017,3.3074,3.306,3.3069,3.2971,3.2952,3.2942,3.2932,3.3054,3.3054,3.3053,3.3053,3.2634,3.2628,3.2705,3.2713,3.2779,3.2786,3.2858,3.2898,3.2914,3.297,3.296,3.3016,3.2923,3.2917,3.3047,3.3048,3.3049,3.305,3.305,3.2528,3.2536,3.2567,3.2604,3.2625,3.2701,3.2712,3.2772,3.2828,3.2818,3.2835,3.2837,3.2847,3.2822,3.2821,3.2821,3.2821,3.2821,3.282,3.2406,3.2444,3.2447,3.2497,3.2518,3.2554,3.263,3.2653,3.2693,3.2736,3.2736,3.2795,3.2901,3.2928,3.2815,3.2816,3.2817,3.2817,3.2818,3.2281,3.2319,3.2323,3.2345,3.2409,3.2425,3.2501,3.2542,3.2569,3.2572,3.2633,3.2702,3.2733,3.2744,3.2766,3.2619,3.2619,3.2619,3.2619,3.2193,3.2214,3.2233,3.2263,3.2299,3.2368,3.237,3.2429,3.2495,3.2516,3.2545,3.2579,3.2588,3.2614,3.2628,3.265,3.2477,3.2477,3.2476,3.2121,3.2148,3.2139,3.2205,3.2259,3.2304,3.2309,3.234,3.2423,3.2472,3.2534,3.254,3.2595,3.261,3.2662,3.2682,3.2723,0,0]}]]